| time (UTC) | temp F | wind direction | speed MPH | gust MPH | rain 1hr in | rain 24hr in | rain mn in | humidity % | barometer mb |
| 20260507054536 | 59 | 310 | 3.0 | 8.0 | 0.00 | 0.00 | 0.00 | 65 | 1020.0 |
| 20260507051535 | 59 | 320 | 2.0 | 16.0 | 0.00 | 0.00 | 0.00 | 65 | 1020.0 |
| 20260507050036 | 58 | 2 | 3.0 | 10.0 | 0.00 | 0.00 | 0.00 | 66 | 1020.0 |
| 20260507044610 | 58 | 4 | 3.0 | 8.0 | 0.00 | 0.00 | 0.00 | 63 | 1019.9 |
| 20260507043036 | 59 | 333 | 3.0 | 7.0 | 0.00 | 0.00 | 0.00 | 60 | 1019.8 |
| 20260507041532 | 59 | 99 | 4.0 | 11.0 | 0.00 | 0.00 | 0.00 | 60 | 1019.7 |
| 20260507040045 | 59 | 74 | 1.0 | 5.0 | 0.00 | 0.00 | 0.00 | 60 | 1019.7 |
| 20260507034532 | 60 | 131 | 3.0 | 8.0 | 0.00 | 0.00 | 0.00 | 59 | 1019.6 |
| 20260507033035 | 61 | 2 | 3.0 | 10.0 | 0.00 | 0.00 | 0.00 | 59 | 1019.6 |
| 20260507024535 | 63 | 291 | 2.0 | 10.0 | 0.00 | 0.00 | 0.00 | 57 | 1019.7 |
| 20260507023109 | 64 | 288 | 5.0 | 16.0 | 0.00 | 0.00 | 0.00 | 55 | 1019.7 |
| 20260507021537 | 65 | 254 | 6.0 | 14.0 | 0.00 | 0.00 | 0.00 | 53 | 1019.6 |
| 20260507020037 | 66 | 288 | 6.0 | 16.0 | 0.00 | 0.00 | 0.00 | 52 | 1019.3 |
| 20260507014533 | 66 | 289 | 5.0 | 13.0 | 0.00 | 0.00 | 0.00 | 51 | 1019.2 |
| 20260507013145 | 67 | 302 | 7.0 | 18.0 | 0.00 | 0.00 | 0.00 | 49 | 1019.1 |
| 20260507011535 | 67 | 300 | 7.0 | 16.0 | 0.00 | 0.00 | 0.00 | 47 | 1019.1 |
| 20260507004531 | 68 | 300 | 7.0 | 17.0 | 0.00 | 0.00 | 0.00 | 43 | 1019.0 |
| 20260507003037 | 70 | 295 | 6.0 | 15.0 | 0.00 | 0.00 | 0.00 | 42 | 1019.0 |
| 20260507001531 | 70 | 283 | 6.0 | 16.0 | 0.00 | 0.00 | 0.00 | 42 | 1018.9 |
| 20260507000034 | 70 | 274 | 5.0 | 12.0 | 0.00 | 0.00 | 0.00 | 41 | 1018.7 |
| 20260506234536 | 71 | 292 | 7.0 | 19.0 | 0.00 | 0.00 | 0.00 | 40 | 1018.6 |
| 20260506233033 | 71 | 296 | 6.0 | 14.0 | 0.00 | 0.00 | 0.00 | 39 | 1018.5 |
| 20260506230038 | 72 | 300 | 7.0 | 20.0 | 0.00 | 0.00 | 0.00 | 40 | 1018.5 |
| 20260506224535 | 72 | 293 | 7.0 | 15.0 | 0.00 | 0.00 | 0.00 | 40 | 1018.6 |
| 20260506221532 | 72 | 291 | 6.0 | 17.0 | 0.00 | 0.00 | 0.00 | 43 | 1019.0 |
| 20260506220038 | 72 | 301 | 7.0 | 19.0 | 0.00 | 0.00 | 0.00 | 43 | 1018.9 |
| 20260506214534 | 71 | 293 | 8.0 | 17.0 | 0.00 | 0.00 | 0.00 | 43 | 1018.8 |
| 20260506213110 | 72 | 301 | 8.0 | 18.0 | 0.00 | 0.00 | 0.00 | 43 | 1018.7 |
| 20260506211534 | 73 | 287 | 6.0 | 17.0 | 0.00 | 0.00 | 0.00 | 43 | 1018.8 |
| 20260506210032 | 72 | 226 | 4.0 | 14.0 | 0.00 | 0.00 | 0.00 | 44 | 1018.9 |
| 20260506203033 | 71 | 309 | 7.0 | 14.0 | 0.00 | 0.00 | 0.00 | 46 | 1018.9 |
| 20260506201536 | 71 | 311 | 6.0 | 12.0 | 0.00 | 0.00 | 0.00 | 44 | 1018.9 |
| 20260506194532 | 71 | 249 | 4.0 | 11.0 | 0.00 | 0.00 | 0.00 | 47 | 1018.9 |
| 20260506193035 | 70 | 252 | 4.0 | 13.0 | 0.00 | 0.00 | 0.00 | 50 | 1019.1 |
| 20260506190037 | 69 | 287 | 5.0 | 14.0 | 0.00 | 0.00 | 0.00 | 52 | 1019.1 |
| 20260506184535 | 69 | 302 | 7.0 | 14.0 | 0.00 | 0.00 | 0.00 | 52 | 1018.9 |
| 20260506183028 | 68 | 300 | 4.0 | 9.0 | 0.00 | 0.00 | 0.00 | 55 | 1018.9 |
| 20260506181530 | 67 | 312 | 6.0 | 13.0 | 0.00 | 0.00 | 0.00 | 57 | 1019.0 |
| 20260506180035 | 67 | 318 | 8.0 | 16.0 | 0.00 | 0.00 | 0.00 | 56 | 1019.0 |
| 20260506173032 | 66 | 5 | 4.0 | 8.0 | 0.00 | 0.00 | 0.00 | 59 | 1018.7 |
| 20260506171554 | 65 | 5 | 4.0 | 9.0 | 0.00 | 0.00 | 0.00 | 62 | 1018.8 |
| 20260506170034 | 64 | 358 | 5.0 | 10.0 | 0.00 | 0.00 | 0.00 | 63 | 1018.8 |
| 20260506164535 | 63 | 11 | 4.0 | 10.0 | 0.00 | 0.00 | 0.00 | 64 | 1018.9 |
| 20260506163035 | 62 | 329 | 7.0 | 18.0 | 0.00 | 0.00 | 0.00 | 65 | 1019.1 |
| 20260506161531 | 62 | 329 | 7.0 | 14.0 | 0.00 | 0.00 | 0.00 | 68 | 1019.2 |
| 20260506160035 | 60 | 351 | 7.0 | 14.0 | 0.00 | 0.00 | 0.00 | 72 | 1019.1 |
| 20260506154530 | 58 | 344 | 4.0 | 11.0 | 0.00 | 0.00 | 0.00 | 75 | 1019.2 |
| 20260506153035 | 57 | 344 | 3.0 | 6.0 | 0.00 | 0.00 | 0.00 | 77 | 1019.0 |
| 20260506151535 | 54 | 83 | 2.0 | 4.0 | 0.00 | 0.00 | 0.00 | 82 | 1019.0 |
| 20260506144535 | 53 | 109 | 2.0 | 4.0 | 0.00 | 0.00 | 0.00 | 86 | 1018.9 |
| 20260506143140 | 51 | 148 | 2.0 | 4.0 | 0.00 | 0.00 | 0.00 | 91 | 1018.9 |
| 20260506141535 | 48 | 146 | 2.0 | 3.0 | 0.00 | 0.00 | 0.00 | 94 | 1018.6 |
| 20260506140037 | 46 | 177 | 2.0 | 4.0 | 0.00 | 0.00 | 0.00 | 95 | 1018.5 |
| 20260506134536 | 45 | 176 | 3.0 | 4.0 | 0.00 | 0.00 | 0.00 | 95 | 1018.3 |
| 20260506133034 | 44 | 162 | 3.0 | 5.0 | 0.00 | 0.00 | 0.00 | 95 | 1018.2 |
| 20260506131537 | 44 | 166 | 3.0 | 7.0 | 0.00 | 0.00 | 0.00 | 94 | 1018.1 |
| 20260506124537 | 45 | 157 | 2.0 | 4.0 | 0.00 | 0.00 | 0.00 | 94 | 1017.9 |
| 20260506123033 | 44 | 146 | 2.0 | 3.0 | 0.00 | 0.00 | 0.00 | 95 | 1017.7 |
| 20260506121608 | 44 | 163 | 3.0 | 4.0 | 0.00 | 0.00 | 0.00 | 95 | 1017.6 |
| 20260506120042 | 44 | 162 | 2.0 | 4.0 | 0.00 | 0.00 | 0.00 | 95 | 1017.5 |
| 20260506113035 | 45 | 146 | 3.0 | 7.0 | 0.00 | 0.00 | 0.00 | 95 | 1017.2 |
| 20260506111537 | 45 | 166 | 3.0 | 5.0 | 0.00 | 0.00 | 0.00 | 95 | 1017.1 |
| 20260506110037 | 45 | 157 | 3.0 | 4.0 | 0.00 | 0.00 | 0.00 | 94 | 1017.0 |
| 20260506104534 | 45 | 157 | 3.0 | 4.0 | 0.00 | 0.00 | 0.00 | 94 | 1016.9 |
| 20260506103109 | 46 | 164 | 3.0 | 4.0 | 0.00 | 0.00 | 0.00 | 94 | 1016.7 |
| 20260506094538 | 46 | 163 | 3.0 | 4.0 | 0.00 | 0.00 | 0.00 | 93 | 1016.6 |
| 20260506091536 | 47 | 157 | 3.0 | 4.0 | 0.00 | 0.00 | 0.00 | 93 | 1016.5 |
| 20260506090037 | 47 | 161 | 3.0 | 4.0 | 0.00 | 0.00 | 0.00 | 93 | 1016.5 |
| 20260506083151 | 47 | 148 | 2.0 | 4.0 | 0.00 | 0.00 | 0.00 | 92 | 1016.2 |
| 20260506081535 | 48 | 161 | 3.0 | 4.0 | 0.00 | 0.00 | 0.00 | 92 | 1016.2 |
| 20260506073038 | 49 | 157 | 3.0 | 4.0 | 0.00 | 0.00 | 0.00 | 91 | 1015.9 |
| 20260506071643 | 50 | 143 | 2.0 | 4.0 | 0.00 | 0.00 | 0.00 | 91 | 1015.9 |